Simultaneous Nadir Overpasses (SNOs) Predictions

Prediction of SNOs between METOP-A and TERRA Satellite Orbit:

Table of predicted SNOs for the next 14.0 days since TLE Epoch: 11/5/2016
Index Date (METOP-A) Time (METOP-A) Lat,Lon (METOP-A) SZA (METOP-A ) Date (TERRA) Time (TERRA) Lat,Lon (TERRA) SZA (TERRA ) Distance(km) Time Diff (sec)
1 11/06/2016 19:14:31 81.29, -61.77 100.66 11/06/2016 19:14:55 81.29, -61.67 100.68 1.74 24
2 11/06/2016 20:05:10 -81.30, 106.23 79.25 11/06/2016 20:04:21 -81.31, 106.32 79.26 1.46 49
3 11/09/2016 14:48:52 81.30, 5.02 101.51 11/09/2016 14:49:09 81.30, 4.93 101.50 1.55 17
4 11/09/2016 15:39:32 -81.30, 172.68 78.45 11/09/2016 15:38:36 -81.30, 172.56 78.49 2.12 56
5 11/12/2016 10:23:13 81.30, 71.39 102.26 11/12/2016 10:23:22 81.30, 71.47 102.28 1.29 9
6 11/
